Location: Astronomy Club of Akron Observatory
(40.9700°N, 81.5606°W)
Time: 04:13:07
(UTC-04:00)

N. Korean satellite - Pass Details

Date: 28 February 2019
Orbit: 456 x 510 km, 97.2° (Epoch: 25 March)

Event Time Altitude Azimuth Distance (km) Brightness Sun altitude
Rises 05:41:59 0° 32° (NNE) 2,483 10.7 -15.9°
Reaches altitude 10° 05:44:45 10° 57° (ENE) 1,601 10.1 -15.4°
Maximum altitude 05:46:46 15° 93° (E) 1,328 10.0 -15.0°
Drops below altitude 10° 05:48:47 10° 129° (SE) 1,594 9.9 -14.7°
Sets 05:51:31 0° 154° (SSE) 2,465 10.5 -14.1°
